THORAD AGENA D DEB, 6014

Orbit data source: Space-Track

THORAD AGENA D DEB, 6014 is space debris in SSO originally from a launch on Wed, 08 Apr 1970 UTC launched from the Air Force Western Test Range (AFWTR). Debris objects in space refer to the collection of defunct objects orbiting the Earth. Examples of debris include non-operational satellites, rocket bodies, and fragments generated from explosions, collisions, or faulty payload assembly.

Loading next visibility...
Identifier
6014, 1970-025MR
Orbit
SSO
Country
Flag of USUS
Related business
Manufacturer
Unknown
Mission
Spacecraft
Bus & Motor
Unknown
Mass
Unknown
Launch date (UTC)
1970-04-08 (56 years ago)
Launch vehicle
Unknown
Launch site
Air Force Western Test Range (AFWTR)
Object type
Payload
Rocket body
Debris
Shape & HBR
Unknown shape, 0.1 m
Radar Cross Section
Small (<0.1 m²)

Expand to show TLE details & history
Last TLE update: 23 hours ago

TLE from 23 hours ago
0 THORAD AGENA D DEB
1 06014U 70025MR  26035.79858863  .00003664  00000-0  22868-2 0  9992
2 06014 100.0180 146.6336 0053707 141.6319 218.8683 14.04778661800456
Epoch: 2026-02-04T19:09Z
TLE epoch observation values (Epoch: 2026-02-04T19:09:58.057Z)
Latitude
-0.0001°
Longitude
84.18172°
Altitude
910.571 km
Speed
7.381 km/s
True Right ascension
09h 46m 32s
True Declination
0° 00' 00"
Sunlit
Object was in full shadow at epoch
Visualization orbit readout
Latitude
Unknown
Longitude
Unknown
Altitude
Unknown
Speed
Unknown
Apparent Right ascension
Unknown
Apparent Declination
Unknown
Sunlit
N/A
Visualization observer readout
Local Sidereal Time
19:56:00
Azimuth
Unknown
Elevation
Unknown
Doppler factor
Unknown
Orbital elements
Apogee altitude
913.492 km
Perigee altitude
835.588 km
Semi-major axis
7,252.677 km
Eccentricity
0.00537
Inclination
100.018°
RAAN
146.6336°
Arg. of periapsis
141.6319°
True anomaly
218.4841°
Mean anomaly
218.8683°
Eccentric anomaly
218.676°
Mean motion
3.51395 °/min
Orbital period
102.45 mins
BSTAR
0.0022868
Loading maneuver chart data...
Computing Atmospheric mass density...

Documentation

Showing up to 5 results
|